FW6663 Weather Reports


time (UTC)temp
C
wind
direction
speed
KPH
gust
KPH
rain 1hr
cm
rain 24hr
cm
rain mn
cm
humidity
%
barometer
mb
20260510063030 11 0.0 0.0 0.00 0.00 0.00 86 1014.3
20260510061533 10 0.0 0.0 0.00 0.00 0.00 86 1014.4
20260510060033 10 202 0.0 1.6 0.00 0.00 0.00 86 1014.4
20260510054531 10 68 3.2 0.0 0.00 0.00 0.00 86 1014.2
20260510053041 10 0.0 0.0 0.00 0.00 0.00 87 1014.3
20260510051545 9 0.0 0.0 0.00 0.00 0.00 87 1014.2
20260510050032 9 0.0 0.0 0.00 0.00 0.00 87 1014.3
20260510044531 9 0.0 0.0 0.00 0.00 0.00 87 1014.2
20260510043032 8 0.0 0.0 0.00 0.00 0.00 87 1014.3
20260510041531 8 0.0 0.0 0.00 0.00 0.00 87 1014.2
20260510040038 8 0.0 0.0 0.00 0.00 0.00 87 1014.2
20260510034530 8 0.0 0.0 0.00 0.00 0.00 87 1014.2
20260510033028 8 0 0.0 0.0 0.00 0.00 0.00 88 1014.1
20260510031532 8 0 0.0 0.0 0.00 0.00 0.00 88 1014.3
20260510030031 8 0 0.0 0.0 0.00 0.00 0.00 89 1014.6
20260510024532 8 0 0.0 0.0 0.00 0.00 0.00 89 1014.6
20260510023030 8 0.0 0.0 0.00 0.00 0.00 89 1014.5
20260510021532 8 0 0.0 0.0 0.00 0.00 0.00 89 1014.6
20260510020032 8 0 0.0 1.6 0.00 0.00 0.00 90 1014.5
20260510014529 8 0 0.0 0.0 0.00 0.00 0.00 90 1014.6
20260510013033 8 0.0 0.0 0.00 0.00 0.00 90 1014.7
20260510011532 8 0.0 0.0 0.00 0.00 0.00 90 1015.0
20260510010029 8 0.0 0.0 0.00 0.00 0.00 89 1015.0
20260510004529 9 0.0 0.0 0.00 0.00 0.00 88 1015.1
20260510003029 9 0.0 0.0 0.00 0.00 0.00 88 1015.4
20260510001529 10 0.0 0.0 0.00 0.00 0.00 87 1015.3
20260510000032 10 0.0 0.0 0.00 0.00 0.00 87 1015.4
20260509234531 10 0.0 0.0 0.00 0.00 0.00 87 1015.4
20260509233028 10 0.0 0.0 0.00 0.00 0.00 86 1015.5
20260509231530 10 0.0 0.0 0.00 0.00 0.00 86 1015.6
20260509230028 10 0 0.0 0.0 0.00 0.00 0.00 85 1015.6
20260509224528 11 0.0 0.0 0.00 0.00 0.00 84 1015.7
20260509223030 11 0.0 0.0 0.00 0.00 0.00 82 1015.6
20260509221529 11 0.0 0.0 0.00 0.00 0.00 80 1015.7
20260509220040 11 0 0.0 0.0 0.00 0.00 0.00 80 1015.7
20260509214533 11 0 0.0 0.0 0.00 0.00 0.00 78 1015.8
20260509213028 12 0.0 0.0 0.00 0.00 0.00 80 1015.6
20260509211528 12 0 0.0 0.0 0.00 0.00 0.00 78 1015.7
20260509210032 12 0.0 0.0 0.00 0.00 0.00 77 1015.7
20260509204529 12 0.0 0.0 0.00 0.00 0.00 77 1015.7
20260509203036 13 0.0 0.0 0.00 0.00 0.00 76 1015.7
20260509201528 13 0 0.0 0.0 0.00 0.00 0.00 72 1015.7
20260509200038 13 75 0.0 0.0 0.00 0.00 0.00 72 1015.5
20260509194545 14 0.0 0.0 0.00 0.00 0.00 68 1015.5
20260509193036 15 0.0 0.0 0.00 0.00 0.00 66 1015.5
20260509191532 15 143 0.0 0.0 0.00 0.00 0.00 65 1015.3
20260509190028 16 0.0 0.0 0.00 0.00 0.00 63 1015.3
20260509184532 16 0.0 0.0 0.00 0.00 0.00 61 1015.2
20260509183045 17 0.0 0.0 0.00 0.00 0.00 59 1015.2
20260509181529 17 0.0 0.0 0.00 0.00 0.00 57 1015.2
20260509180028 17 0.0 0.0 0.00 0.00 0.00 58 1015.1
20260509174543 18 0.0 0.0 0.00 0.00 0.00 57 1015.1
20260509173029 18 0.0 0.0 0.00 0.00 0.00 55 1015.2
20260509171539 18 0.0 0.0 0.00 0.00 0.00 53 1015.0
20260509170033 19 0.0 0.0 0.00 0.00 0.00 53 1015.0
20260509164529 19 0.0 0.0 0.00 0.00 0.00 54 1015.2
20260509163042 18 0.0 0.0 0.00 0.00 0.00 53 1015.1
20260509161539 19 0.0 0.0 0.00 0.00 0.00 52 1015.2
20260509160110 19 0.0 0.0 0.00 0.00 0.00 54 1015.1
20260509154529 19 0.0 0.0 0.00 0.00 0.00 54 1015.1
20260509153043 20 0.0 0.0 0.00 0.00 0.00 54 1015.3
20260509151530 20 0.0 0.0 0.00 0.00 0.00 56 1015.5
20260509150038 20 0.0 0.0 0.00 0.00 0.00 53 1015.6
20260509144531 20 0.0 0.0 0.00 0.00 0.00 53 1015.5
20260509143034 20 315 4.8 6.4 0.00 0.00 0.00 52 1015.7
20260509141529 20 246 4.8 9.7 0.00 0.00 0.00 53 1015.8
20260509140034 20 0.0 0.0 0.00 0.00 0.00 54 1015.9
20260509134529 21 0.0 0.0 0.00 0.00 0.00 51 1016.0
20260509133028 21 96 1.6 0.0 0.00 0.00 0.00 49 1016.1
20260509131529 21 0.0 0.0 0.00 0.00 0.00 51 1016.3
20260509130028 20 116 6.4 0.0 0.00 0.00 0.00 55 1016.4
20260509124530 21 275 3.2 9.7 0.00 0.00 0.00 57 1016.4
20260509123028 20 0.0 0.0 0.00 0.00 0.00 56 1016.6
20260509121529 20 0.0 0.0 0.00 0.00 0.00 54 1016.8
20260509120033 20 122 4.8 0.0 0.00 0.00 0.00 56 1016.8
20260509114527 20 0.0 0.0 0.00 0.00 0.00 57 1017.0
20260509113028 20 0.0 0.0 0.00 0.00 0.00 54 1017.2
20260509111530 20 0.0 0.0 0.00 0.00 0.00 56 1017.3
20260509110027 19 0.0 0.0 0.00 0.00 0.00 58 1017.5
20260509104530 19 0.0 0.0 0.00 0.00 0.00 57 1017.6
20260509103029 19 0.0 0.0 0.00 0.00 0.00 60 1017.7
20260509101530 18 0.0 0.0 0.00 0.00 0.00 60 1017.6
20260509100029 18 281 1.6 0.0 0.00 0.00 0.00 60 1017.7
20260509094530 18 63 11.3 0.0 0.00 0.00 0.00 63 1017.7
20260509093039 18 0.0 0.0 0.00 0.00 0.00 62 1017.8
20260509091529 18 0.0 0.0 0.00 0.00 0.00 63 1017.8
20260509090030 17 0.0 0.0 0.00 0.00 0.00 66 1017.8
20260509084533 17 131 1.6 6.4 0.00 0.00 0.00 66 1017.7
20260509083031 17 148 1.6 9.7 0.00 0.00 0.00 68 1017.9
20260509081530 17 0.0 0.0 0.00 0.00 0.00 69 1018.0
20260509080031 16 0.0 0.0 0.00 0.00 0.00 68 1018.0
20260509074531 16 98 1.6 0.0 0.00 0.00 0.00 68 1017.9
20260509073028 16 0.0 0.0 0.00 0.00 0.00 69 1018.0
20260509071528 15 0.0 0.0 0.00 0.00 0.00 70 1018.1
20260509070028 15 208 1.6 6.4 0.00 0.00 0.00 70 1018.2
20260509064535 15 169 0.0 3.2 0.00 0.00 0.00 72 1018.1